Dewpoint
63 60 61 62 63 62 65 61 63 63 63 62 62 62 63 65 64 65 65 63 63 62
62 63 61 63 65 67 63 61 62 62 62 61 61 62 63 65 63 65 64 64 61 66
61 61 62 64 63 63 64 61 61 62 62 61 61 62 63 64 63 63 62 62 63 64
61 61 62 64 62 63 64 61 60 60 61 61 61 62 63 63 62 61 63 63 62 63
61 61 63 62 61 63 62 61 59 59 60 59 60 61 61 59 59 60 61 61 61 61
61 61 62 62 62 63 62 61 59 59 60 60 60 60 60 60 60 60 61 61 62 62
60 61 61 62 62 62 61 61 59 60 60 60 60 60 60 60 60 60 61 62 62 62
60 61 61 61 61 62 62 61 61 61 61 60 60 59 60 60 60 61 61 62 61 63
58 59 61 62 61 62 62 61 61 61 60 60 58 51 53 58 60 61 61 62 62 62
58 58 60 60 61 62 62 62 63 62 61 60 60 49 51 53 61 61 62 62 62 62
56 56 59 60 61 63 63 62 61 61 60 60 59 49 49 52 62 62 62 62 62 62
54 56 57 57 60 63 65 63 63 62 60 57 59 47 47 55 61 60 61 62 61 61
53 55 56 57 61 63 64 62 62 61 60 54 57 44 46 55 60 60 61 61 60 52
55 56 57 59 62 63 61 61 61 61 62 59 57 53 47 51 60 60 60 60 61 58
Lifted_Index
-2 -2 -2 -2 -2 -2 -2 -2 -2 -2 -2 -2 -2 -2 -3 -3 -3 -3 -3 -2 -2 -2
-2 -2 -2 -2 -2 -2 -2 -2 -2 -2 -2 -2 -2 -2 -2 -3 -2 -2 -2 -2 -2 -2
-2 -1 -1 -1 -2 -2 -2 -2 -2 -2 -2 -2 -2 -2 -2 -2 -2 -2 -2 -2 -2 -2
-1 -1 -1 -1 -1 -2 -2 -2 -1 -1 -2 -2 -2 -2 -2 -2 -2 -2 -2 -2 -2 -2
-1 -1 -1 -1 -1 -2 -2 -2 -1 -1 -1 -1 -1 -1 -1 -1 -1 -2 -2 -2 -2 -2
-1 -1 -1 -1 -1 -1 -2 -1 -1 -1 -1 -1 -1 -1 -1 -1 -1 -1 -1 -1 -1 -1
-1 -1 -1 -1 -1 -1 -1 -1 -1 -1 -0 -1 -0 -0 -0 -0 -0 -1 -1 -1 -1 -2
-1 -1 -1 -1 -1 -1 -1 -1 -1 -0 -0 0 0 0 0 0 0 -0 -1 -1 -1 -1
-1 -1 -1 -1 -1 -1 -0 -0 -0 -0 0 0 1 1 1 1 0 0 -0 -0 -0 -0
-1 -1 -1 -1 -1 -1 -0 0 0 0 1 1 1 2 2 1 0 0 0 0 1 1
-0 -1 -1 -1 -1 -1 -1 0 0 1 1 2 2 2 2 1 0 0 0 1 1 1
0 -0 -0 -0 -1 -1 -1 -1 -0 1 2 2 2 2 2 1 1 1 1 1 1 1
0 0 0 0 -1 -1 -1 -1 -1 0 2 2 2 2 2 1 1 1 1 1 1 2
1 1 1 0 -1 -1 -1 -1 -1 0 1 2 2 2 2 1 1 1 1 1 2 2